GW5131 Weather Reports


Display with metric or nautical units.
time (UTC)temp
F
wind
direction
speed
MPH
gust
MPH
rain 1hr
in
rain 24hr
in
rain mn
in
humidity
%
barometer
mb
20260902034619 70 245 0.0 0.0 0.00 0.00 0.00 99 983.7
20260902034118 70 245 0.0 0.0 0.00 0.00 0.00 99 983.7
20260902033617 70 245 0.0 0.0 0.00 0.00 0.00 99 983.7
20260902033113 70 245 0.0 0.0 0.00 0.00 0.00 99 983.7
20260902032611 70 245 0.0 0.0 0.00 0.00 0.00 99 983.8
20260902032107 70 245 0.0 0.0 0.00 0.00 0.00 99 983.8
20260902031606 70 245 0.0 0.0 0.00 0.00 0.00 99 984.0
20260902031103 70 245 0.0 0.0 0.00 0.00 0.00 99 983.9
20260902030558 71 245 0.0 0.0 0.00 0.00 0.00 99 983.8
20260902030057 71 245 0.0 0.0 0.00 0.00 0.00 99 983.9
20260902025551 70 245 0.0 0.0 0.00 0.00 0.00 99 983.9
20260902025047 71 245 0.0 0.0 0.00 0.00 0.00 99 983.9
20260902024542 71 245 0.0 0.0 0.00 0.00 0.00 99 983.8
20260902024042 71 245 0.0 0.0 0.00 0.00 0.00 99 983.9
20260902023538 71 245 0.0 0.0 0.00 0.00 0.00 99 983.8
20260902023033 72 245 0.0 0.0 0.00 0.00 0.00 99 984.0
20260902022533 71 245 0.0 0.0 0.00 0.00 0.00 99 983.8
20260902022029 71 245 0.0 0.0 0.00 0.00 0.00 99 983.8
20260902021524 71 245 0.0 0.0 0.00 0.00 0.00 99 983.9
20260902021019 72 245 0.0 0.0 0.00 0.00 0.00 99 983.8
20260902020515 72 245 0.0 0.0 0.00 0.00 0.00 99 983.7
20260902020011 71 245 0.0 0.0 0.00 0.00 0.00 99 983.8
20260902015506 72 245 0.0 0.0 0.00 0.00 0.00 99 983.7
20260902015007 72 245 0.0 0.0 0.00 0.00 0.00 99 983.8
20260902014503 72 245 0.0 0.0 0.00 0.00 0.00 99 983.8
20260902013958 73 245 0.0 0.0 0.00 0.00 0.00 99 983.6
20260902013453 72 245 0.0 0.0 0.00 0.00 0.00 99 983.6
20260902012948 72 245 0.0 0.0 0.00 0.00 0.00 99 983.7
20260902012443 72 245 0.0 0.0 0.00 0.00 0.00 99 983.8
20260902011939 73 245 0.0 0.0 0.00 0.00 0.00 99 983.8
20260902011434 73 245 0.0 0.0 0.00 0.00 0.00 99 983.9
20260902010933 73 245 0.0 0.0 0.00 0.00 0.00 99 983.6
20260902010428 73 245 0.0 0.0 0.00 0.00 0.00 99 983.6
20260902005927 73 245 0.0 0.0 0.00 0.00 0.00 99 983.4
20260902005421 74 245 0.0 0.0 0.00 0.00 0.00 99 983.4
20260902004918 74 245 0.0 0.0 0.00 0.00 0.00 99 983.3
20260902004417 74 245 0.0 0.0 0.00 0.00 0.00 99 983.2
20260902003912 74 245 0.0 0.0 0.00 0.00 0.00 99 983.5
20260902003407 74 245 0.0 0.0 0.00 0.00 0.00 99 983.3
20260902002903 75 245 0.0 0.0 0.00 0.00 0.00 99 983.2
20260902002402 75 245 0.0 0.0 0.00 0.00 0.00 99 983.2
20260902001857 75 245 0.0 0.0 0.00 0.00 0.00 99 983.0
20260902001352 75 245 0.0 0.0 0.00 0.00 0.00 99 983.1
20260902000847 76 245 0.0 0.0 0.00 0.00 0.00 99 983.2
20260902000341 76 245 0.0 0.0 0.00 0.00 0.00 98 983.3
20260901235837 76 245 0.0 0.0 0.00 0.00 0.00 98 983.4
20260901235336 76 245 0.0 0.0 0.00 0.00 0.00 97 983.3
20260901234831 77 244 0.0 0.0 0.00 0.00 0.00 97 983.2
20260901234326 77 244 0.0 0.0 0.00 0.00 0.00 97 983.3
20260901233821 77 245 0.0 0.0 0.00 0.00 0.00 96 983.2
20260901233316 78 244 0.0 0.0 0.00 0.00 0.00 95 983.2
20260901232812 78 245 0.0 0.0 0.00 0.00 0.00 94 983.4
20260901232306 78 245 0.0 0.0 0.00 0.00 0.00 94 983.2
20260901231803 78 245 0.0 0.0 0.00 0.00 0.00 93 983.3
20260901231259 79 244 0.0 0.0 0.00 0.00 0.00 93 983.3
20260901230755 79 245 0.0 0.0 0.00 0.00 0.00 93 983.3
20260901230254 79 244 0.0 0.0 0.00 0.00 0.00 93 983.5
20260901225750 80 247 0.0 0.0 0.00 0.00 0.00 92 983.2
20260901225244 80 248 0.0 0.0 0.00 0.00 0.00 91 983.3
20260901224740 81 247 0.0 0.0 0.00 0.00 0.00 91 983.2
20260901224236 82 247 0.0 1.0 0.00 0.00 0.00 90 983.3
20260901223732 82 247 0.0 0.0 0.00 0.00 0.00 90 983.2
20260901223226 82 248 0.0 1.0 0.00 0.00 0.00 91 983.2
20260901222723 82 248 0.0 2.0 0.00 0.00 0.00 91 983.0
20260901222214 83 254 1.0 2.0 0.00 0.00 0.00 89 982.9
20260901221709 83 264 2.0 2.0 0.00 0.00 0.00 88 982.7
20260901221205 85 239 0.0 0.0 0.00 0.00 0.00 86 982.8
20260901220703 85 237 0.0 1.0 0.00 0.00 0.00 86 982.7
20260901220203 86 238 0.0 1.0 0.00 0.00 0.00 85 983.0
20260901215702 85 236 1.0 1.0 0.00 0.00 0.00 84 982.9
20260901215201 86 223 1.0 1.0 0.00 0.00 0.00 84 982.9
20260901214700 86 222 0.0 0.0 0.00 0.00 0.00 84 982.9
20260901214154 85 222 0.0 0.0 0.00 0.00 0.00 86 982.9
20260901213654 85 222 0.0 1.0 0.00 0.00 0.00 85 983.0
20260901213149 84 223 0.0 0.0 0.00 0.00 0.00 85 982.9
20260901212648 85 223 0.0 0.0 0.00 0.00 0.00 86 983.1
20260901212145 85 223 1.0 1.0 0.00 0.00 0.00 87 983.3
20260901211639 86 218 0.0 1.0 0.00 0.00 0.00 83 983.1
20260901211136 87 191 0.0 2.0 0.00 0.00 0.00 73 983.2
20260901210631 88 144 1.0 1.0 0.00 0.00 0.00 75 983.2
20260901210127 87 222 0.0 1.0 0.00 0.00 0.00 74 983.0
20260901205623 87 103 1.0 1.0 0.00 0.00 0.00 75 983.3
20260901205123 87 120 1.0 2.0 0.00 0.00 0.00 75 983.3
20260901204619 87 164 0.0 2.0 0.00 0.00 0.00 72 983.3
20260901204113 87 310 2.0 2.0 0.00 0.00 0.00 72 983.2
20260901203613 88 53 1.0 3.0 0.00 0.00 0.00 72 983.6
20260901203108 89 193 2.0 2.0 0.00 0.00 0.00 74 983.4
20260901202608 88 213 2.0 4.0 0.00 0.00 0.00 73 983.7
20260901202105 89 76 2.0 2.0 0.00 0.00 0.00 78 983.6
20260901201600 88 218 0.0 0.0 0.00 0.00 0.00 75 983.7
20260901201059 87 164 0.0 0.0 0.00 0.00 0.00 78 983.6
20260901200558 87 109 0.0 0.0 0.00 0.00 0.00 77 983.8
20260901200053 87 110 1.0 1.0 0.00 0.00 0.00 78 983.9
20260901195551 87 109 0.0 1.0 0.00 0.00 0.00 77 983.8
20260901195046 87 106 1.0 2.0 0.00 0.00 0.00 78 983.9
20260901194541 86 247 0.0 0.0 0.00 0.00 0.00 77 983.9
20260901194037 86 220 0.0 1.0 0.00 0.00 0.00 82 983.8
20260901193536 86 226 0.0 1.0 0.00 0.00 0.00 82 983.8
20260901193032 86 108 0.0 1.0 0.00 0.00 0.00 79 983.9
20260901192526 86 102 1.0 2.0 0.00 0.00 0.00 80 983.7
20260901192022 86 111 0.0 1.0 0.00 0.00 0.00 79 983.6
20260901191518 87 129 0.0 0.0 0.00 0.00 0.00 79 984.1
20260901191014 87 141 0.0 2.0 0.00 0.00 0.00 75 984.0
20260901190509 87 111 0.0 1.0 0.00 0.00 0.00 78 983.9
20260901190008 86 114 0.0 1.0 0.00 0.00 0.00 80 984.0
20260901185507 86 85 1.0 3.0 0.00 0.00 0.00 79 984.0
20260901185006 87 132 0.0 4.0 0.00 0.00 0.00 77 984.2
20260901184501 86 168 0.0 3.0 0.00 0.00 0.00 76 984.4
20260901183957 87 114 1.0 2.0 0.00 0.00 0.00 73 984.4
20260901183451 88 240 1.0 1.0 0.00 0.00 0.00 74 984.6
20260901182947 87 134 2.0 3.0 0.00 0.00 0.00 73 984.6
20260901182442 87 237 2.0 3.0 0.00 0.00 0.00 76 984.7
20260901181937 87 101 1.0 1.0 0.00 0.00 0.00 73 984.7
20260901181432 87 119 1.0 3.0 0.00 0.00 0.00 76 985.1
20260901180930 87 162 2.0 2.0 0.00 0.00 0.00 78 985.0
20260901180430 89 157 1.0 2.0 0.00 0.00 0.00 72 984.9
20260901175928 87 2 1.0 4.0 0.00 0.00 0.00 73 985.2
20260901175423 87 72 2.0 3.0 0.00 0.00 0.00 76 985.4
20260901174913 86 51 1.0 3.0 0.00 0.00 0.00 75 985.3
20260901174408 86 114 1.0 2.0 0.00 0.00 0.00 77 985.4
20260901173904 86 111 4.0 4.0 0.00 0.00 0.00 75 985.4
20260901173359 86 106 0.0 2.0 0.00 0.00 0.00 75 985.3
20260901172855 86 220 0.0 1.0 0.00 0.00 0.00 76 985.3
20260901172354 86 315 1.0 3.0 0.00 0.00 0.00 75 985.4
20260901171852 85 163 1.0 3.0 0.00 0.00 0.00 76 985.4
20260901171352 86 154 2.0 3.0 0.00 0.00 0.00 78 985.3
20260901170850 87 115 1.0 2.0 0.00 0.00 0.00 77 985.3
20260901170346 86 122 3.0 4.0 0.00 0.00 0.00 75 985.3
20260901165839 86 5 1.0 3.0 0.00 0.00 0.00 76 985.4
20260901165334 86 226 1.0 6.0 0.00 0.00 0.00 74 985.3
20260901164831 87 240 2.0 7.0 0.00 0.00 0.00 74 985.2
20260901164325 87 253 2.0 7.0 0.00 0.00 0.00 72 984.9
20260901163820 87 222 3.0 6.0 0.00 0.00 0.00 77 984.8
20260901163315 87 342 3.0 4.0 0.00 0.00 0.00 75 984.8
20260901162810 88 200 1.0 4.0 0.00 0.00 0.00 75 984.8
20260901162309 86 117 3.0 3.0 0.00 0.00 0.00 75 985.0
20260901161808 86 82 3.0 6.0 0.00 0.00 0.00 77 985.0
20260901161303 86 209 4.0 7.0 0.00 0.00 0.00 76 985.0
20260901160758 86 102 3.0 3.0 0.00 0.00 0.00 78 985.0
20260901160254 86 101 4.0 7.0 0.00 0.00 0.00 78 984.9
20260901155753 86 156 2.0 3.0 0.00 0.00 0.00 79 984.9
20260901155248 85 158 2.0 4.0 0.00 0.00 0.00 79 984.9
20260901154744 85 231 2.0 6.0 0.00 0.00 0.00 80 984.9
20260901154238 85 125 1.0 2.0 0.00 0.00 0.00 79 984.8
20260901153734 85 103 4.0 6.0 0.00 0.00 0.00 79 985.0
20260901153233 84 124 1.0 2.0 0.00 0.00 0.00 80 985.0
20260901152732 84 122 2.0 6.0 0.00 0.00 0.00 81 985.0
20260901152231 84 115 1.0 4.0 0.00 0.00 0.00 81 984.8
20260901151726 84 81 3.0 3.0 0.00 0.00 0.00 82 984.9
20260901151221 84 87 2.0 3.0 0.00 0.00 0.00 83 985.0
20260901150721 83 110 3.0 3.0 0.00 0.00 0.00 82 984.8
20260901150219 83 94 3.0 4.0 0.00 0.00 0.00 84 985.2
20260901145717 82 67 2.0 4.0 0.00 0.00 0.00 85 985.2
20260901145217 81 222 1.0 3.0 0.00 0.00 0.00 85 985.2
20260901144712 81 79 2.0 3.0 0.00 0.00 0.00 86 985.1
20260901144207 82 122 1.0 3.0 0.00 0.00 0.00 85 985.2
20260901143702 82 113 0.0 2.0 0.00 0.00 0.00 85 985.3
20260901143159 81 142 3.0 4.0 0.00 0.00 0.00 83 985.4
20260901142655 81 108 1.0 3.0 0.00 0.00 0.00 87 985.4
20260901142154 80 120 2.0 4.0 0.00 0.00 0.00 87 985.4
20260901141649 80 91 4.0 4.0 0.00 0.00 0.00 87 985.3
20260901141149 79 93 2.0 2.0 0.00 0.00 0.00 90 985.3
20260901140648 78 103 0.0 2.0 0.00 0.00 0.00 92 985.5
20260901140147 78 87 1.0 3.0 0.00 0.00 0.00 91 985.6
20260901135642 79 76 1.0 2.0 0.00 0.00 0.00 90 985.4
20260901135137 78 85 0.0 2.0 0.00 0.00 0.00 93 985.4
20260901134633 78 106 2.0 2.0 0.00 0.00 0.00 93 985.5
20260901134128 77 109 0.0 2.0 0.00 0.00 0.00 95 985.5
20260901133627 76 93 1.0 2.0 0.00 0.00 0.00 97 985.5
20260901133125 76 104 1.0 1.0 0.00 0.00 0.00 99 985.4
20260901132620 75 78 0.0 2.0 0.00 0.00 0.00 99 985.6
20260901132120 74 111 0.0 0.0 0.00 0.00 0.00 98 985.4
20260901131619 74 110 0.0 0.0 0.00 0.00 0.00 99 985.7
20260901131114 73 77 0.0 0.0 0.00 0.00 0.00 98 985.5
20260901130610 73 76 0.0 0.0 0.00 0.00 0.00 98 985.6
20260901130108 73 64 0.0 0.0 0.00 0.00 0.00 96 985.6
20260901125606 73 64 0.0 0.0 0.00 0.00 0.00 96 985.6
20260901125102 71 221 0.0 0.0 0.00 0.00 0.00 99 985.5
20260901124601 71 221 0.0 0.0 0.00 0.00 0.00 99 985.5
20260901124056 70 226 0.0 0.0 0.00 0.00 0.00 99 985.6
20260901123546 69 226 0.0 0.0 0.00 0.00 0.00 99 985.7
20260901123045 69 226 0.0 0.0 0.00 0.00 0.00 99 985.7
20260901122544 69 226 0.0 0.0 0.00 0.00 0.00 99 985.6
20260901122037 68 226 0.0 0.0 0.00 0.00 0.00 99 985.5
20260901121532 68 227 0.0 0.0 0.00 0.00 0.00 99 985.6
20260901121027 67 227 0.0 0.0 0.00 0.00 0.00 99 985.5
20260901120527 67 227 1.0 2.0 0.00 0.00 0.00 99 985.5
20260901120023 66 226 0.0 0.0 0.00 0.00 0.00 99 985.4
20260901115517 66 226 0.0 0.0 0.00 0.00 0.00 99 985.4
20260901115015 66 226 0.0 0.0 0.00 0.00 0.00 99 985.4
20260901114510 65 226 0.0 0.0 0.00 0.00 0.00 99 985.3
20260901114008 65 226 0.0 0.0 0.00 0.00 0.00 99 985.2
20260901113507 65 226 0.0 0.0 0.00 0.00 0.00 99 985.1
20260901113003 65 226 0.0 0.0 0.00 0.00 0.00 99 985.1
20260901112458 65 226 0.0 0.0 0.00 0.00 0.00 99 985.1
20260901111953 65 226 0.0 0.0 0.00 0.00 0.00 99 985.0
20260901111451 64 226 0.0 0.0 0.00 0.00 0.00 99 985.1
20260901110949 64 226 0.0 0.0 0.00 0.00 0.00 99 985.0
20260901110445 65 227 0.0 0.0 0.00 0.00 0.00 99 985.0
20260901105941 65 226 0.0 0.0 0.00 0.00 0.00 99 985.0
20260901105437 64 226 0.0 0.0 0.00 0.00 0.00 99 984.7
20260901104932 65 226 0.0 0.0 0.00 0.00 0.00 99 984.8
20260901104427 65 226 0.0 0.0 0.00 0.00 0.00 99 984.7
20260901103923 64 226 0.0 0.0 0.00 0.00 0.00 99 984.6
20260901103423 64 226 0.0 0.0 0.00 0.00 0.00 99 984.6
20260901102918 64 226 0.0 0.0 0.00 0.00 0.00 99 984.7
20260901102418 65 226 0.0 0.0 0.00 0.00 0.00 99 984.6
20260901101913 65 226 0.0 0.0 0.00 0.00 0.00 99 984.5
20260901101409 65 226 0.0 0.0 0.00 0.00 0.00 99 984.5
20260901100908 65 226 0.0 0.0 0.00 0.00 0.00 99 984.3
20260901100403 65 226 0.0 0.0 0.00 0.00 0.00 99 984.3
20260901095902 65 226 0.0 0.0 0.00 0.00 0.00 99 984.3
20260901095400 65 226 0.0 0.0 0.00 0.00 0.00 99 984.3
20260901094854 65 226 0.0 0.0 0.00 0.00 0.00 99 984.3
20260901094348 65 226 0.0 0.0 0.00 0.00 0.00 99 984.4
20260901093843 65 226 0.0 0.0 0.00 0.00 0.00 99 984.4
20260901093342 65 226 0.0 0.0 0.00 0.00 0.00 99 984.3
20260901092838 65 226 0.0 0.0 0.00 0.00 0.00 99 984.4
20260901092334 65 226 0.0 0.0 0.00 0.00 0.00 99 984.5
20260901091831 65 226 0.0 0.0 0.00 0.00 0.00 99 984.2
20260901091330 65 226 0.0 0.0 0.00 0.00 0.00 99 984.4
20260901090825 65 226 0.0 0.0 0.00 0.00 0.00 99 984.3
20260901090320 65 226 0.0 0.0 0.00 0.00 0.00 99 984.3
20260901085816 65 226 0.0 0.0 0.00 0.00 0.00 99 984.3
20260901085316 65 226 0.0 0.0 0.00 0.00 0.00 99 984.4
20260901084812 65 226 0.0 0.0 0.00 0.00 0.00 99 984.3
20260901084308 65 226 0.0 0.0 0.00 0.00 0.00 99 984.3
20260901083809 65 226 0.0 0.0 0.00 0.00 0.00 99 984.5
20260901083308 65 226 0.0 0.0 0.00 0.00 0.00 99 984.3
20260901082807 66 226 0.0 0.0 0.00 0.00 0.00 99 984.3
20260901082306 66 226 0.0 0.0 0.00 0.00 0.00 99 984.3
20260901081757 65 226 0.0 0.0 0.00 0.00 0.00 99 984.2
20260901081252 65 226 0.0 0.0 0.00 0.00 0.00 99 984.1
20260901080747 65 226 0.0 0.0 0.00 0.00 0.00 99 984.1
20260901080246 66 226 0.0 0.0 0.00 0.00 0.00 99 984.2
20260901075741 66 226 0.0 0.0 0.00 0.00 0.00 99 984.1
20260901075236 66 226 0.0 0.0 0.00 0.00 0.00 99 984.4
20260901074735 66 226 0.0 0.0 0.00 0.00 0.00 99 984.3
20260901074230 66 226 0.0 0.0 0.00 0.00 0.00 99 984.4
20260901073727 66 226 0.0 0.0 0.00 0.00 0.00 99 984.2
20260901073222 66 226 0.0 0.0 0.00 0.00 0.00 99 984.3
20260901072717 66 226 0.0 0.0 0.00 0.00 0.00 99 984.3
20260901072212 66 226 0.0 0.0 0.00 0.00 0.00 99 984.2
20260901071707 66 226 0.0 0.0 0.00 0.00 0.00 99 984.2
20260901071207 66 226 0.0 0.0 0.00 0.00 0.00 99 984.4
20260901070700 67 226 0.0 0.0 0.00 0.00 0.00 99 984.5
20260901070156 66 226 0.0 0.0 0.00 0.00 0.00 99 984.5
20260901065655 66 226 0.0 0.0 0.00 0.00 0.00 99 984.3
20260901065150 66 226 0.0 0.0 0.00 0.00 0.00 99 984.5
20260901064647 66 226 0.0 0.0 0.00 0.00 0.00 99 984.3
20260901064143 67 226 0.0 0.0 0.00 0.00 0.00 99 984.4
20260901063640 66 226 0.0 0.0 0.00 0.00 0.00 99 984.5
20260901063135 66 226 0.0 0.0 0.00 0.00 0.00 99 984.3
20260901062631 66 226 0.0 0.0 0.00 0.00 0.00 99 984.5
20260901062127 66 226 0.0 0.0 0.00 0.00 0.00 99 984.4
20260901061623 66 226 0.0 0.0 0.00 0.00 0.00 99 984.3
20260901061117 66 226 0.0 0.0 0.00 0.00 0.00 99 984.2
20260901060617 66 226 0.0 0.0 0.00 0.00 0.00 99 984.3
20260901060113 66 226 0.0 0.0 0.00 0.00 0.00 99 984.4
20260901055613 66 226 0.0 0.0 0.00 0.00 0.00 99 984.5
20260901055110 66 226 0.0 0.0 0.00 0.00 0.00 99 984.5
20260901054607 66 226 0.0 0.0 0.00 0.00 0.00 99 984.6
20260901054103 66 226 0.0 0.0 0.00 0.00 0.00 99 984.4
20260901053559 66 226 0.0 0.0 0.00 0.00 0.00 99 984.5
20260901053054 66 226 0.0 0.0 0.00 0.00 0.00 99 984.6
20260901052549 66 226 0.0 0.0 0.00 0.00 0.00 99 984.7
20260901052044 66 226 0.0 0.0 0.00 0.00 0.00 99 984.8
20260901051539 66 226 0.0 0.0 0.00 0.00 0.00 99 984.6
20260901051038 66 226 0.0 0.0 0.00 0.00 0.00 99 984.6
20260901050533 66 226 0.0 0.0 0.00 0.00 0.00 99 984.5
20260901050028 67 226 0.0 0.0 0.00 0.00 0.00 99 984.4
20260901045523 67 226 0.0 0.0 0.00 0.00 0.00 99 984.5
20260901045023 67 226 0.0 0.0 0.00 0.00 0.00 99 984.6
20260901044519 67 226 0.0 0.0 0.00 0.00 0.00 99 984.7
20260901044015 67 226 0.0 0.0 0.00 0.00 0.00 99 984.6
20260901043510 67 226 0.0 0.0 0.00 0.00 0.00 99 984.5
20260901043006 67 226 0.0 0.0 0.00 0.00 0.00 99 984.4
20260901042505 67 226 0.0 0.0 0.00 0.00 0.00 99 984.7
20260901042001 67 226 0.0 0.0 0.00 0.00 0.00 99 984.6
20260901041500 67 226 0.0 0.0 0.00 0.00 0.00 99 984.8
20260901040955 68 226 0.0 0.0 0.00 0.00 0.00 99 984.8
20260901040450 68 226 0.0 0.0 0.00 0.00 0.00 99 985.0
20260901035949 67 226 0.0 0.0 0.00 0.05 0.05 99 984.8
20260901035448 67 226 0.0 0.0 0.00 0.05 0.05 99 984.9
20260901034947 68 226 0.0 0.0 0.00 0.05 0.05 99 985.0